星链-37437(STARLINK-37437)

导读

STARLINK-37437(NORAD编号69170)是SpaceX星链(Starlink)互联网星座中的一颗低轨通信卫星,隶属于SpaceX打造全球天基互联网系统的组网卫星之一。星链项目旨在通过大规模低轨卫星星座部署,为全球提供低成本、高速率的互联网接入服务。该卫星运行于近地轨道,完成在轨部署后参与星座组网,为地面用户提供通信中继服务,其轨道数据可通过航天跟踪平台获取,是星链星座持续扩容过程中发射的组网卫星,支撑星链系统全球覆盖能力的不断完善。

基本信息
目录编号:
69170
目录名称:
STARLINK-37437
国际标识:
2026-111Y
轨道中心:
EARTH
卫星名称:
星链-37437
卫星全名:
星链-37437(STARLINK-37437)
卫星状态:
在轨 (已飞行107 天)
发射日期:
2026-05-21 UTC
国别 :
美国 (US)
星等 :
--
轨道信息
数据来源 国际轨道数据
星历时间: 2026-09-05T09:55:00+0800
7小时前
查看轨道信息
半长轴: 6840.825km
偏心率: 0.000135
轨道倾角: 53.158°
近地点辐角 86.215°
升交点赤经 137.641°
平近点角 273.900°
近地点: 461.764km
远地点: 463.612km
周期: 93.847分钟
每日圈数: 15.344053
详细信息
固有亮度:
5
最大亮度:
2.5
卫星平台:
Starlink V1.0
覆盖范围:
全球
运营商:
太空探索技术公司
运营商所在国:
美国
制造商(研发单位):
太空探索技术公司
制造商所在国:
美国
使用方式:
暂无
卫星简介
Starlink 计划是 SpaceX 推出的全球卫星互联网项目,通过发射低轨道卫星,为全球尤其是偏远地区提供高速、低延迟的互联网服务。自 2019 年起,Starlink 已部署数千颗卫星,旨在缩小全球数字鸿沟,推动互联网普及。该项目还为军事、航空等行业提供通信支持,带来广泛经济效益。
2D轨道图
3D轨道图
轨道高度分析图
轨道倾角分析图
轨道综合分析图
查看轨道综合分析图
交会数据列表
事件ID 空间交会对象 最接近时刻(TCA) 交会距离 交会风险概率(CRP) 交会风险指数(CRI) 操作
CDM_260829-213906-917006-995321
2026-08-29T
21:39:30+0000
2.017 km
极远距离
2.020259E-6 低风险 0.41
CDM_260902-104105-210806-917021
2026-09-02T
10:41:12+0000
2.634 km
极远距离
1.417468E-6 低风险 0.38
CDM_260829-215405-175606-917022
2026-08-29T
21:54:06+0000
2.994 km
极远距离
9.066004E-7 极低风险 0.34